カタログに戻る

THORAD AGENA D DEB

運用中SSO
NORAD 14478·DEBRIS·🇺🇸 United States

打ち上げ Apr 8, 1970 から Vandenberg Space Force Base

Loading…

次のパス (今後24時間)

TLE

最新Source: Space-Track

元期: Sep 13, 2026, 21:26 UTC

1 14478U 70025NW  26256.89368543  .00006099  00000-0  19175-1 0  9993
2 14478 100.9035  63.0075 0495293 226.0040 129.9200 12.69138198620369

AllMySatでTHORAD AGENA D DEBをリアルタイム追跡

Download on the App Store